#Datum;Uhrzeit;WR;Pac;DaySum;Status;WR;Pac;DaySum;Status;Pdc1;Udc;Temp;WR;Pac;DaySum;Status;Pdc1;Udc;Temp;WR;Pac;DaySum;Status;Pdc1;Udc;Temp;WR;Pac;DaySum;Status;Pdc1;Pdc2;Udc1;Udc2;Temp;WR;Pac;DaySum;Status;Pdc1;Pdc2;Udc1;Udc2;Temp;WR;Pac;DaySum;Status;Pdc1;Udc;Temp;WR;Pac;DaySum;Status;Pdc1;Udc;Temp;WR;Pac;DaySum;Status;Pdc1;Udc;Temp
09.02.20;23:55:00;1;304;19153;0;2;0;19654;0;0;0;0;3;0;12772;0;0;0;0;4;0;16837;0;0;0;0;5;0;46558;0;0;0;0;0;0;6;0;35179;0;0;0;0;0;0;7;0;32531;0;0;0;0;8;0;31959;0;0;0;0;9;0;17317;0;0;0;0
09.02.20;23:50:00;1;314;19127;0;2;0;19654;0;0;0;0;3;0;12772;0;0;0;0;4;0;16837;0;0;0;0;5;0;46558;0;0;0;0;0;0;6;0;35179;0;0;0;0;0;0;7;0;32531;0;0;0;0;8;0;31959;0;0;0;0;9;0;17317;0;0;0;0
09.02.20;23:45:00;1;349;19100;0;2;0;19654;0;0;0;0;3;0;12772;0;0;0;0;4;0;16837;0;0;0;0;5;0;46558;0;0;0;0;0;0;6;0;35179;0;0;0;0;0;0;7;0;32531;0;0;0;0;8;0;31959;0;0;0;0;9;0;17317;0;0;0;0
09.02.20;23:40:00;1;316;19071;0;2;0;19654;0;0;0;0;3;0;12772;0;0;0;0;4;0;16837;0;0;0;0;5;0;46558;0;0;0;0;0;0;6;0;35179;0;0;0;0;0;0;7;0;32531;0;0;0;0;8;0;31959;0;0;0;0;9;0;17317;0;0;0;0
09.02.20;23:35:00;1;350;19045;0;2;0;19654;0;0;0;0;3;0;12772;0;0;0;0;4;0;16837;0;0;0;0;5;0;46558;0;0;0;0;0;0;6;0;35179;0;0;0;0;0;0;7;0;32531;0;0;0;0;8;0;31959;0;0;0;0;9;0;17317;0;0;0;0
09.02.20;23:30:00;1;338;19015;0;2;0;19654;0;0;0;0;3;0;12772;0;0;0;0;4;0;16837;0;0;0;0;5;0;46558;0;0;0;0;0;0;6;0;35179;0;0;0;0;0;0;7;0;32531;0;0;0;0;8;0;31959;0;0;0;0;9;0;17317;0;0;0;0
09.02.20;23:25:00;1;279;18988;0;2;0;19654;0;0;0;0;3;0;12772;0;0;0;0;4;0;16837;0;0;0;0;5;0;46558;0;0;0;0;0;0;6;0;35179;0;0;0;0;0;0;7;0;32531;0;0;0;0;8;0;31959;0;0;0;0;9;0;17317;0;0;0;0
09.02.20;23:20:00;1;243;18965;0;2;0;19654;0;0;0;0;3;0;12772;0;0;0;0;4;0;16837;0;0;0;0;5;0;46558;0;0;0;0;0;0;6;0;35179;0;0;0;0;0;0;7;0;32531;0;0;0;0;8;0;31959;0;0;0;0;9;0;17317;0;0;0;0
09.02.20;23:15:00;1;286;18945;0;2;0;19654;0;0;0;0;3;0;12772;0;0;0;0;4;0;16837;0;0;0;0;5;0;46558;0;0;0;0;0;0;6;0;35179;0;0;0;0;0;0;7;0;32531;0;0;0;0;8;0;31959;0;0;0;0;9;0;17317;0;0;0;0
09.02.20;23:10:00;1;242;18920;0;2;0;19654;0;0;0;0;3;0;12772;0;0;0;0;4;0;16837;0;0;0;0;5;0;46558;0;0;0;0;0;0;6;0;35179;0;0;0;0;0;0;7;0;32531;0;0;0;0;8;0;31959;0;0;0;0;9;0;17317;0;0;0;0
09.02.20;23:07:00;1;244;18912;0;2;0;19654;0;0;0;0;3;0;12772;0;0;0;0;4;0;16837;0;0;0;0;5;0;46558;0;0;0;0;0;0;6;0;35179;0;0;0;0;0;0;7;0;32531;0;0;0;0;8;0;31959;0;0;0;0;9;0;17317;0;0;0;0
09.02.20;23:00:00;1;243;18879;0;2;0;19654;0;0;0;0;3;0;12772;0;0;0;0;4;0;16837;0;0;0;0;5;0;46558;0;0;0;0;0;0;6;0;35179;0;0;0;0;0;0;7;0;32531;0;0;0;0;8;0;31959;0;0;0;0;9;0;17317;0;0;0;0
09.02.20;22:55:00;1;244;18859;0;2;0;19654;0;0;0;0;3;0;12772;0;0;0;0;4;0;16837;0;0;0;0;5;0;46558;2;0;0;0;0;0;6;0;35179;2;0;0;0;0;0;7;0;32531;0;0;0;0;8;0;31959;0;0;0;0;9;0;17317;0;0;0;0
09.02.20;22:50:00;1;250;18838;0;2;0;19654;0;0;0;0;3;0;12772;0;0;0;0;4;0;16837;0;0;0;0;5;0;46558;2;0;0;0;0;0;6;0;35179;2;0;0;0;0;0;7;0;32531;0;0;0;0;8;0;31959;0;0;0;0;9;0;17317;0;0;0;0
09.02.20;22:45:00;1;322;18817;0;2;0;19654;0;0;0;0;3;0;12772;0;0;0;0;4;0;16837;0;0;0;0;5;0;46558;2;0;0;0;0;0;6;0;35179;2;0;0;0;0;0;7;0;32531;0;0;0;0;8;0;31959;0;0;0;0;9;0;17317;0;0;0;0
09.02.20;22:40:00;1;329;18790;0;2;0;19654;0;0;0;0;3;0;12772;0;0;0;0;4;0;16837;0;0;0;0;5;0;46558;2;0;0;0;0;0;6;0;35179;2;0;0;0;0;0;7;0;32531;0;0;0;0;8;0;31959;0;0;0;0;9;0;17317;0;0;0;0
09.02.20;22:35:00;1;277;18764;0;2;0;19654;0;0;0;0;3;0;12772;0;0;0;0;4;0;16837;0;0;0;0;5;0;46558;2;0;0;0;0;0;6;0;35179;2;0;0;0;0;0;7;0;32531;0;0;0;0;8;0;31959;0;0;0;0;9;0;17317;0;0;0;0
09.02.20;22:30:00;1;245;18741;0;2;0;19654;0;0;0;0;3;0;12772;0;0;0;0;4;0;16837;0;0;0;0;5;0;46558;2;0;0;0;0;0;6;0;35179;2;0;0;0;0;0;7;0;32531;0;0;0;0;8;0;31959;0;0;0;0;9;0;17317;0;0;0;0
09.02.20;22:25:00;1;244;18721;0;2;0;19654;0;0;0;0;3;0;12772;0;0;0;0;4;0;16837;0;0;0;0;5;0;46558;2;0;0;0;0;0;6;0;35179;2;0;0;0;0;0;7;0;32531;0;0;0;0;8;0;31959;0;0;0;0;9;0;17317;0;0;0;0
09.02.20;22:20:00;1;250;18700;0;2;0;19654;0;0;0;0;3;0;12772;0;0;0;0;4;0;16837;0;0;0;0;5;0;46558;2;0;0;0;0;0;6;0;35179;2;0;0;0;0;0;7;0;32531;0;0;0;0;8;0;31959;0;0;0;0;9;0;17317;0;0;0;0
09.02.20;22:15:00;1;287;18679;0;2;0;19654;0;0;0;0;3;0;12772;0;0;0;0;4;0;16837;0;0;0;0;5;0;46558;2;0;0;0;0;0;6;0;35179;2;0;0;0;0;0;7;0;32531;0;0;0;0;8;0;31959;0;0;0;0;9;0;17317;0;0;0;0
09.02.20;22:10:00;1;316;18654;0;2;0;19654;0;0;0;0;3;0;12772;0;0;0;0;4;0;16837;0;0;0;0;5;0;46558;2;0;0;0;0;0;6;0;35179;2;0;0;0;0;0;7;0;32531;0;0;0;0;8;0;31959;0;0;0;0;9;0;17317;0;0;0;0
09.02.20;22:05:00;1;281;18628;0;2;0;19654;0;0;0;0;3;0;12772;0;0;0;0;4;0;16837;0;0;0;0;5;0;46558;2;0;0;0;0;0;6;0;35179;2;0;0;0;0;0;7;0;32531;0;0;0;0;8;0;31959;0;0;0;0;9;0;17317;0;0;0;0
09.02.20;22:00:00;1;311;18604;0;2;0;19654;0;0;0;0;3;0;12772;0;0;0;0;4;0;16837;0;0;0;0;5;0;46558;2;0;0;0;0;0;6;0;35179;2;0;0;0;0;0;7;0;32531;0;0;0;0;8;0;31959;0;0;0;0;9;0;17317;0;0;0;0
09.02.20;21:55:00;1;393;18578;0;2;0;19654;0;0;0;0;3;0;12772;0;0;0;0;4;0;16837;0;0;0;0;5;0;46558;2;0;0;0;0;0;6;0;35179;2;0;0;0;0;0;7;0;32531;0;0;0;0;8;0;31959;0;0;0;0;9;0;17317;0;0;0;0
09.02.20;21:50:00;1;395;18545;0;2;0;19654;0;0;0;0;3;0;12772;0;0;0;0;4;0;16837;0;0;0;0;5;0;46558;2;0;0;0;0;0;6;0;35179;2;0;0;0;0;0;7;0;32531;0;0;0;0;8;0;31959;0;0;0;0;9;0;17317;0;0;0;0
09.02.20;21:45:00;1;389;18512;0;2;0;19654;0;0;0;0;3;0;12772;0;0;0;0;4;0;16837;0;0;0;0;5;0;46558;2;0;0;0;0;0;6;0;35179;2;0;0;0;0;0;7;0;32531;0;0;0;0;8;0;31959;0;0;0;0;9;0;17317;0;0;0;0
09.02.20;21:40:00;1;437;18480;0;2;0;19654;0;0;0;0;3;0;12772;0;0;0;0;4;0;16837;0;0;0;0;5;0;46558;2;0;0;0;0;0;6;0;35179;2;0;0;0;0;0;7;0;32531;0;0;0;0;8;0;31959;0;0;0;0;9;0;17317;0;0;0;0
09.02.20;21:35:00;1;349;18446;0;2;0;19654;0;0;0;0;3;0;12772;0;0;0;0;4;0;16837;0;0;0;0;5;0;46558;2;0;0;0;0;0;6;0;35179;2;0;0;0;0;0;7;0;32531;0;0;0;0;8;0;31959;0;0;0;0;9;0;17317;0;0;0;0
09.02.20;21:30:00;1;349;18416;0;2;0;19654;0;0;0;0;3;0;12772;0;0;0;0;4;0;16837;0;0;0;0;5;0;46558;2;0;0;0;0;0;6;0;35179;2;0;0;0;0;0;7;0;32531;0;0;0;0;8;0;31959;0;0;0;0;9;0;17317;0;0;0;0
09.02.20;21:25:00;1;361;18387;0;2;0;19654;0;0;0;0;3;0;12772;0;0;0;0;4;0;16837;0;0;0;0;5;0;46558;2;0;0;0;0;0;6;0;35179;2;0;0;0;0;0;7;0;32531;0;0;0;0;8;0;31959;0;0;0;0;9;0;17317;0;0;0;0
09.02.20;21:20:00;1;323;18358;0;2;0;19654;0;0;0;0;3;0;12772;0;0;0;0;4;0;16837;0;0;0;0;5;0;46558;2;0;0;0;0;0;6;0;35179;2;0;0;0;0;0;7;0;32531;0;0;0;0;8;0;31959;0;0;0;0;9;0;17317;0;0;0;0
09.02.20;21:15:00;1;421;18330;0;2;0;19654;0;0;0;0;3;0;12772;0;0;0;0;4;0;16837;0;0;0;0;5;0;46558;2;0;0;0;0;0;6;0;35179;2;0;0;0;0;0;7;0;32531;0;0;0;0;8;0;31959;0;0;0;0;9;0;17317;0;0;0;0
09.02.20;21:10:00;1;475;18296;0;2;0;19654;0;0;0;0;3;0;12772;0;0;0;0;4;0;16837;0;0;0;0;5;0;46558;2;0;0;0;0;0;6;0;35179;2;0;0;0;0;0;7;0;32531;0;0;0;0;8;0;31959;0;0;0;0;9;0;17317;0;0;0;0
09.02.20;21:05:00;1;463;18256;0;2;0;19654;0;0;0;0;3;0;12772;0;0;0;0;4;0;16837;0;0;0;0;5;0;46558;2;0;0;0;0;0;6;0;35179;2;0;0;0;0;0;7;0;32531;0;0;0;0;8;0;31959;0;0;0;0;9;0;17317;0;0;0;0
09.02.20;21:00:00;1;454;18218;0;2;0;19654;0;0;0;0;3;0;12772;0;0;0;0;4;0;16837;0;0;0;0;5;0;46558;2;0;0;0;0;0;6;0;35179;2;0;0;0;0;0;7;0;32531;0;0;0;0;8;0;31959;0;0;0;0;9;0;17317;0;0;0;0
09.02.20;20:55:00;1;629;18180;0;2;0;19654;0;0;0;0;3;0;12772;0;0;0;0;4;0;16837;0;0;0;0;5;0;46558;2;0;0;0;0;0;6;0;35179;2;0;0;0;0;0;7;0;32531;0;0;0;0;8;0;31959;0;0;0;0;9;0;17317;0;0;0;0
09.02.20;20:50:00;1;748;18106;0;2;0;19654;0;0;0;0;3;0;12772;0;0;0;0;4;0;16837;0;0;0;0;5;0;46558;2;0;0;0;0;0;6;0;35179;2;0;0;0;0;0;7;0;32531;0;0;0;0;8;0;31959;0;0;0;0;9;0;17317;0;0;0;0
09.02.20;20:45:00;1;409;18050;0;2;0;19654;0;0;0;0;3;0;12772;0;0;0;0;4;0;16837;0;0;0;0;5;0;46558;2;0;0;0;0;0;6;0;35179;2;0;0;0;0;0;7;0;32531;0;0;0;0;8;0;31959;0;0;0;0;9;0;17317;0;0;0;0
09.02.20;20:40:00;1;479;18016;0;2;0;19654;0;0;0;0;3;0;12772;0;0;0;0;4;0;16837;0;0;0;0;5;0;46558;2;0;0;0;0;0;6;0;35179;2;0;0;0;0;0;7;0;32531;0;0;0;0;8;0;31959;0;0;0;0;9;0;17317;0;0;0;0
09.02.20;20:35:00;1;409;17976;0;2;0;19654;0;0;0;0;3;0;12772;0;0;0;0;4;0;16837;0;0;0;0;5;0;46558;2;0;0;0;0;0;6;0;35179;2;0;0;0;0;0;7;0;32531;0;0;0;0;8;0;31959;0;0;0;0;9;0;17317;0;0;0;0
09.02.20;20:30:00;1;282;17943;0;2;0;19654;0;0;0;0;3;0;12772;0;0;0;0;4;0;16837;0;0;0;0;5;0;46558;2;0;0;0;0;0;6;0;35179;2;0;0;0;0;0;7;0;32531;0;0;0;0;8;0;31959;0;0;0;0;9;0;17317;0;0;0;0
09.02.20;20:25:00;1;283;17919;0;2;0;19654;0;0;0;0;3;0;12772;0;0;0;0;4;0;16837;0;0;0;0;5;0;46558;2;0;0;0;0;0;6;0;35179;2;0;0;0;0;0;7;0;32531;0;0;0;0;8;0;31959;0;0;0;0;9;0;17317;0;0;0;0
09.02.20;20:20:00;1;363;17895;0;2;0;19654;0;0;0;0;3;0;12772;0;0;0;0;4;0;16837;0;0;0;0;5;0;46558;2;0;0;0;0;0;6;0;35179;2;0;0;0;0;0;7;0;32531;0;0;0;0;8;0;31959;0;0;0;0;9;0;17317;0;0;0;0
09.02.20;20:15:00;1;1217;17846;0;2;0;19654;0;0;0;0;3;0;12772;0;0;0;0;4;0;16837;0;0;0;0;5;0;46558;2;0;0;0;0;0;6;0;35179;2;0;0;0;0;0;7;0;32531;0;0;0;0;8;0;31959;0;0;0;0;9;0;17317;0;0;0;0
09.02.20;20:10:00;1;1090;17755;0;2;0;19654;0;0;0;0;3;0;12772;0;0;0;0;4;0;16837;0;0;0;0;5;0;46558;2;0;0;0;0;0;6;0;35179;2;0;0;0;0;0;7;0;32531;0;0;0;0;8;0;31959;0;0;0;0;9;0;17317;0;0;0;0
09.02.20;20:05:00;1;1567;17658;0;2;0;19654;0;0;0;0;3;0;12772;0;0;0;0;4;0;16837;0;0;0;0;5;0;46558;2;0;0;0;0;0;6;0;35179;2;0;0;0;0;0;7;0;32531;0;0;0;0;8;0;31959;0;0;0;0;9;0;17317;0;0;0;0
09.02.20;20:00:00;1;1674;17554;0;2;0;19654;0;0;0;0;3;0;12772;0;0;0;0;4;0;16837;0;0;0;0;5;0;46558;2;0;0;0;0;0;6;0;35179;2;0;0;0;0;0;7;0;32531;0;0;0;0;8;0;31959;0;0;0;0;9;0;17317;0;0;0;0
09.02.20;19:55:00;1;637;17420;0;2;0;19654;0;0;0;0;3;0;12772;0;0;0;0;4;0;16837;0;0;0;0;5;0;46558;2;0;0;0;0;0;6;0;35179;2;0;0;0;0;0;7;0;32531;0;0;0;0;8;0;31959;0;0;0;0;9;0;17317;0;0;0;0
09.02.20;19:50:00;1;854;17365;0;2;0;19654;0;0;0;0;3;0;12772;0;0;0;0;4;0;16837;0;0;0;0;5;0;46558;2;0;0;0;0;0;6;0;35179;2;0;0;0;0;0;7;0;32531;0;0;0;0;8;0;31959;0;0;0;0;9;0;17317;0;0;0;0
09.02.20;19:45:00;1;1860;17293;0;2;0;19654;0;0;0;0;3;0;12772;0;0;0;0;4;0;16837;0;0;0;0;5;0;46558;2;0;0;0;0;0;6;0;35179;2;0;0;0;0;0;7;0;32531;0;0;0;0;8;0;31959;0;0;0;0;9;0;17317;0;0;0;0
09.02.20;19:40:00;1;1413;17113;0;2;0;19654;0;0;0;0;3;0;12772;0;0;0;0;4;0;16837;0;0;0;0;5;0;46558;2;0;0;0;0;0;6;0;35179;2;0;0;0;0;0;7;0;32531;0;0;0;0;8;0;31959;0;0;0;0;9;0;17317;0;0;0;0
09.02.20;19:35:00;1;1104;17007;0;2;0;19654;0;0;0;0;3;0;12772;0;0;0;0;4;0;16837;0;0;0;0;5;0;46558;2;0;0;0;0;0;6;0;35179;2;0;0;0;0;0;7;0;32531;0;0;0;0;8;0;31959;0;0;0;0;9;0;17317;0;0;0;0
09.02.20;19:30:00;1;1069;16916;0;2;0;19654;0;0;0;0;3;0;12772;0;0;0;0;4;0;16837;0;0;0;0;5;0;46558;2;0;0;0;0;0;6;0;35179;2;0;0;0;0;0;7;0;32531;0;0;0;0;8;0;31959;0;0;0;0;9;0;17317;0;0;0;0
09.02.20;19:25:00;1;1562;16814;0;2;0;19654;0;0;0;0;3;0;12772;0;0;0;0;4;0;16837;0;0;0;0;5;0;46558;2;0;0;0;0;0;6;0;35179;2;0;0;0;0;0;7;0;32531;0;0;0;0;8;0;31959;0;0;0;0;9;0;17317;0;0;0;0
09.02.20;19:20:00;1;999;16694;0;2;0;19654;0;0;0;0;3;0;12772;0;0;0;0;4;0;16837;0;0;0;0;5;0;46558;2;0;0;0;0;0;6;0;35179;2;0;0;0;0;0;7;0;32531;0;0;0;0;8;0;31959;0;0;0;0;9;0;17317;0;0;0;0
09.02.20;19:15:00;1;948;16611;0;2;0;19654;0;0;0;0;3;0;12772;0;0;0;0;4;0;16837;0;0;0;0;5;0;46558;2;0;0;0;0;0;6;0;35179;2;0;0;0;0;0;7;0;32531;0;0;0;0;8;0;31959;0;0;0;0;9;0;17317;0;0;0;0
09.02.20;19:10:00;1;874;16533;0;2;0;19654;0;0;0;0;3;0;12772;0;0;0;0;4;0;16837;0;0;0;0;5;0;46558;2;0;0;0;0;0;6;0;35179;2;0;0;0;0;0;7;0;32531;0;0;0;0;8;0;31959;0;0;0;0;9;0;17317;0;0;0;0
09.02.20;19:05:00;1;1455;16460;0;2;0;19654;0;0;0;0;3;0;12772;0;0;0;0;4;0;16837;0;0;0;0;5;0;46558;2;0;0;0;0;0;6;0;35179;2;0;0;0;0;0;7;0;32531;0;0;0;0;8;0;31959;0;0;0;0;9;0;17317;0;0;0;0
09.02.20;19:00:00;1;856;16350;0;2;0;19654;0;0;0;0;3;0;12772;0;0;0;0;4;0;16837;0;0;0;0;5;0;46558;2;0;0;0;0;0;6;0;35179;2;0;0;0;0;0;7;0;32531;0;0;0;0;8;0;31959;0;0;0;0;9;0;17317;0;0;0;0
09.02.20;18:55:00;1;1669;16279;0;2;0;19654;0;0;0;0;3;0;12772;0;0;0;0;4;0;16837;0;0;0;0;5;0;46558;2;0;0;0;0;0;6;0;35179;2;0;0;0;0;0;7;0;32531;0;0;0;0;8;0;31959;0;0;0;0;9;0;17317;0;0;0;0
09.02.20;18:50:00;1;1985;16122;0;2;0;19654;0;0;0;0;3;0;12772;0;0;0;0;4;0;16837;0;0;0;0;5;0;46558;2;0;0;0;0;0;6;0;35179;2;0;0;0;0;0;7;0;32531;0;0;0;0;8;0;31959;0;0;0;0;9;0;17317;0;0;0;0
09.02.20;18:45:00;1;1499;15956;0;2;0;19654;0;0;0;0;3;0;12772;0;0;0;0;4;0;16837;0;0;0;0;5;0;46558;2;0;0;0;0;0;6;0;35179;2;0;0;0;0;0;7;0;32531;0;0;0;0;8;0;31959;0;0;0;0;9;0;17317;0;0;0;0
09.02.20;18:40:00;1;897;15839;0;2;0;19654;0;0;0;0;3;0;12772;0;0;0;0;4;0;16837;0;0;0;0;5;0;46558;2;0;0;0;0;0;6;0;35179;2;0;0;0;0;0;7;0;32531;0;0;0;0;8;0;31959;0;0;0;0;9;0;17317;0;0;0;0
09.02.20;18:35:00;1;922;15764;0;2;0;19654;0;0;0;0;3;0;12772;0;0;0;0;4;0;16837;0;0;0;0;5;0;46558;2;0;0;0;0;0;6;0;35179;2;0;0;0;0;0;7;0;32531;0;0;0;0;8;0;31959;0;0;0;0;9;0;17317;0;0;0;0
09.02.20;18:30:00;1;942;15687;0;2;0;19654;0;0;0;0;3;0;12772;0;0;0;0;4;0;16837;0;0;0;0;5;0;46558;2;0;0;0;0;0;6;0;35179;2;0;0;0;0;0;7;0;32531;0;0;0;0;8;0;31959;0;0;0;0;9;0;17317;0;0;0;0
09.02.20;18:25:00;1;1049;15608;0;2;0;19654;0;0;0;0;3;0;12772;0;0;0;0;4;0;16837;0;0;0;0;5;0;46558;2;0;0;0;0;0;6;0;35179;2;0;0;0;0;0;7;0;32531;0;0;0;0;8;0;31959;0;0;0;0;9;0;17317;0;0;0;0
09.02.20;18:20:00;1;1955;15512;0;2;0;19654;0;0;0;0;3;0;12772;0;0;0;0;4;0;16837;0;0;0;0;5;0;46558;2;0;0;0;0;0;6;0;35179;2;0;0;0;0;0;7;0;32531;0;0;0;0;8;0;31959;0;0;0;0;9;0;17317;0;0;0;0
09.02.20;18:15:00;1;1904;15351;0;2;0;19654;0;0;0;0;3;0;12772;0;0;0;0;4;0;16837;0;0;0;0;5;0;46558;2;0;0;0;0;0;6;0;35179;2;0;0;0;0;0;7;0;32531;0;0;0;0;8;0;31959;0;0;0;0;9;0;17317;0;0;0;0
09.02.20;18:10:00;1;1117;15191;0;2;0;19654;0;0;0;0;3;0;12772;0;0;0;0;4;0;16837;0;0;0;0;5;0;46558;2;0;0;0;0;0;6;0;35179;2;0;0;0;0;0;7;0;32531;0;0;0;0;8;0;31959;0;0;0;0;9;0;17317;0;0;0;0
09.02.20;18:05:00;1;784;15097;0;2;0;19654;0;0;0;0;3;0;12772;0;0;0;0;4;0;16837;0;0;0;0;5;0;46558;2;0;0;0;0;0;6;0;35179;2;0;0;0;0;0;7;0;32531;0;0;0;0;8;0;31959;0;0;0;0;9;0;17317;0;0;0;0
09.02.20;18:00:00;1;869;15031;0;2;0;19654;0;0;0;0;3;0;12772;0;0;0;0;4;0;16837;0;0;0;0;5;0;46558;2;0;0;0;0;0;6;0;35179;2;0;0;0;0;0;7;0;32531;0;0;0;0;8;0;31959;0;0;0;0;9;0;17317;0;0;0;0
09.02.20;17:55:00;1;675;14963;0;2;0;19654;0;0;0;0;3;0;12772;0;0;0;0;4;0;16837;0;0;0;0;5;0;46558;2;0;0;0;0;0;6;0;35179;2;0;0;0;0;0;7;0;32531;0;0;0;0;8;0;31959;0;0;0;0;9;0;17317;0;0;0;0
09.02.20;17:50:00;1;786;14906;0;2;0;19654;0;0;0;0;3;0;12772;0;0;0;0;4;0;16837;0;0;0;0;5;0;46558;2;0;0;0;0;0;6;0;35179;2;0;0;0;0;0;7;0;32531;0;0;0;0;8;0;31959;0;0;0;0;9;0;17317;0;0;0;0
09.02.20;17:45:00;1;786;14840;0;2;0;19654;0;0;0;0;3;0;12772;0;0;0;0;4;0;16837;0;0;0;0;5;0;46558;2;0;0;0;0;0;6;0;35179;2;0;0;0;0;0;7;0;32531;0;0;0;0;8;0;31959;0;0;0;0;9;0;17317;0;0;0;0
09.02.20;17:40:00;1;722;14775;0;2;0;19654;0;0;0;0;3;0;12772;0;0;0;0;4;0;16837;0;0;0;0;5;0;46558;2;0;0;0;0;0;6;0;35179;2;0;0;0;0;0;7;0;32531;0;0;0;0;8;0;31959;0;0;0;0;9;0;17317;0;0;0;0
09.02.20;17:35:00;1;672;14715;0;2;0;19654;0;0;132;7;3;0;12772;2;0;280;16;4;0;16837;0;0;0;0;5;0;46558;2;0;0;0;0;0;6;0;35179;2;0;0;0;0;0;7;0;32531;0;0;0;0;8;0;31959;0;0;0;0;9;0;17317;0;0;0;0
09.02.20;17:30:00;1;714;14659;0;2;0;19654;6;0;311;15;3;0;12772;6;0;366;17;4;0;16837;2;0;78;14;5;0;46558;2;0;1;98;97;8;6;0;35179;2;0;1;14;13;4;7;0;32531;0;0;0;0;8;0;31959;0;0;0;0;9;0;17317;0;0;0;0
09.02.20;17:25:00;1;768;14599;0;2;0;19654;6;0;348;15;3;0;12772;6;2;416;17;4;0;16837;1;0;120;15;5;0;46558;2;0;0;295;294;20;6;0;35179;23;2;8;212;444;24;7;0;32531;0;0;213;16;8;0;31959;0;0;214;15;9;0;17317;2;0;280;14
09.02.20;17:20:00;1;689;14541;0;2;0;19654;6;0;374;16;3;0;12772;6;0;464;17;4;0;16837;1;0;164;15;5;7;46558;26;0;0;394;591;26;6;0;35179;23;0;12;505;251;24;7;0;32531;0;0;212;12;8;0;31959;6;0;342;20;9;0;17317;6;0;358;15
09.02.20;17:15:00;1;611;14484;0;2;0;19654;6;0;397;16;3;1;12772;3;3;479;18;4;0;16837;1;0;202;16;5;12;46558;26;0;0;415;642;27;6;0;35179;23;0;7;262;499;25;7;0;32531;6;0;415;21;8;0;31959;6;0;417;20;9;0;17317;6;1;428;15
09.02.20;17:10:00;1;615;14433;0;2;2;19654;6;7;408;17;3;1;12772;6;6;509;18;4;3;16837;3;3;199;17;5;87;46556;4;11;14;388;619;28;6;16;35179;23;10;19;491;464;26;7;2;32531;3;12;436;21;8;3;31959;3;10;436;21;9;0;17317;6;2;503;16
09.02.20;17:05:00;1;617;14381;0;2;50;19653;4;83;360;18;3;6;12772;6;11;523;19;4;11;16837;3;12;198;17;5;134;46548;4;38;35;388;619;28;6;60;35177;4;29;28;439;214;27;7;16;32531;6;26;442;22;8;12;31959;6;24;442;21;9;1;17316;4;5;411;12
09.02.20;17:00:00;1;666;14330;0;2;100;19649;4;134;375;19;3;38;12772;6;62;496;19;4;46;16836;3;48;197;17;5;197;46537;4;79;65;388;619;28;6;92;35172;4;49;41;439;215;27;7;71;32530;4;102;408;23;8;63;31957;4;99;415;22;9;10;17316;3;19;525;17
09.02.20;16:55:00;1;728;14274;0;2;133;19641;4;168;374;19;3;69;12769;4;111;495;20;4;72;16832;3;75;198;17;5;252;46520;4;105;97;388;619;29;6;122;35164;4;58;54;439;244;27;7;125;32524;4;151;410;23;8;109;31952;4;142;401;23;9;12;17315;6;17;552;17
09.02.20;16:50:00;1;822;14209;0;2;194;19630;4;231;381;20;3;113;12763;4;154;497;20;4;130;16826;5;135;222;18;5;310;46498;4;138;116;388;619;29;6;198;35153;4;66;107;439;495;27;7;179;32513;4;221;435;24;8;164;31943;4;200;427;23;9;63;17314;4;88;386;15
09.02.20;16:45:00;1;563;14145;0;2;277;19614;4;317;397;21;3;155;12753;4;201;527;21;4;190;16815;5;198;231;18;5;372;46472;4;169;145;388;619;29;6;246;35136;4;88;157;439;553;27;7;276;32498;4;309;455;24;8;210;31929;4;248;451;24;9;73;17308;4;96;383;15
09.02.20;16:40:00;1;547;14098;0;2;275;19591;4;317;388;22;3;159;12741;4;205;510;21;4;191;16799;5;199;232;18;5;378;46441;4;176;149;388;619;29;6;255;35115;4;93;163;439;557;27;7;287;32475;4;328;467;25;8;226;31912;4;270;447;24;9;94;17300;4;126;487;19
09.02.20;16:35:00;1;547;14052;0;2;331;19568;4;373;382;22;3;181;12727;4;221;446;22;4;218;16783;5;228;233;19;5;433;46410;4;205;173;396;624;30;6;314;35093;4;135;214;501;556;28;7;300;32451;4;388;466;25;8;271;31893;4;321;477;25;9;84;17292;4;113;408;15
09.02.20;16:30:00;1;565;14006;0;2;508;19540;4;559;392;24;3;271;12712;4;312;419;22;4;314;16765;5;327;241;19;5;612;46371;4;291;247;409;653;30;6;458;35065;4;171;238;579;564;28;7;504;32425;4;549;399;21;8;421;31870;4;471;500;25;9;127;17283;4;161;534;20
09.02.20;16:25:00;1;726;13959;0;2;636;19497;4;692;395;25;3;342;12689;4;386;435;23;4;355;16739;5;370;232;20;5;726;46321;4;361;294;412;629;30;6;549;35027;4;229;290;578;569;28;7;767;32376;4;823;475;27;8;534;31835;4;581;461;26;9;134;17273;4;172;545;21
09.02.20;16:20:00;1;893;13896;0;2;526;19444;4;576;388;26;3;275;12661;4;315;410;23;4;313;16709;5;326;240;20;5;673;46260;4;320;270;414;642;30;6;509;34982;4;234;294;583;563;28;7;538;32310;4;576;399;23;8;534;31789;4;581;455;27;9;117;17261;4;147;413;18
09.02.20;16:15:00;1;1239;13829;0;2;715;19400;4;775;387;28;3;382;12638;4;424;427;24;4;381;16683;5;397;220;20;5;874;46204;4;426;355;414;640;31;6;643;34939;4;311;381;580;565;28;7;821;32256;4;884;478;28;8;700;31745;4;753;462;28;9;161;17249;4;188;374;22
09.02.20;16:10:00;1;2480;13688;0;2;1874;19340;4;1984;397;30;3;1052;12605;4;1123;429;25;4;789;16651;5;822;201;21;5;2178;46122;4;1152;926;427;705;31;6;1645;34879;4;844;885;599;587;28;7;2047;32187;4;2143;396;23;8;2447;31685;4;2571;482;28;9;484;17236;4;524;358;23
09.02.20;16:05:00;1;2396;13487;0;2;2021;19188;4;2136;390;30;3;1129;12520;4;1204;433;26;4;777;16587;5;809;199;21;5;2369;45938;4;1271;1015;434;711;31;6;1777;34740;4;889;933;608;580;29;7;2683;31980;4;2825;491;29;8;2605;31494;4;2733;480;29;9;792;17198;4;847;374;24
09.02.20;16:00:00;1;2378;13286;0;2;2075;19019;4;2189;393;31;3;1161;12426;4;1231;431;26;4;764;16522;5;795;200;21;5;2520;45737;4;1348;1086;427;701;32;6;1916;34589;4;971;1013;604;583;29;7;2818;31755;4;2962;489;29;8;2245;31276;4;2360;408;24;9;1080;17133;4;1147;409;26
09.02.20;15:55:00;1;2305;13090;0;2;2189;18846;4;2309;389;32;3;1221;12329;4;1298;430;27;4;804;16459;5;838;230;22;5;2728;45526;4;1462;1170;426;710;32;6;2037;34429;4;1003;1063;609;580;29;7;2942;31524;4;3087;484;30;8;2901;31058;4;3039;484;30;9;1026;17044;4;1085;354;21
09.02.20;15:50:00;1;475;12898;0;2;2320;18661;4;2445;392;32;3;1297;12226;4;1374;428;27;4;825;16391;5;860;218;22;5;2951;45292;4;1576;1277;430;701;32;6;2189;34252;4;1095;1142;607;582;29;7;3090;31274;4;3244;487;30;8;3045;30813;4;3194;486;30;9;1481;16935;4;1569;478;27
09.02.20;15:45:00;1;451;12858;0;2;2355;18465;4;2480;385;33;3;1321;12116;4;1402;430;27;4;815;16321;5;849;211;22;5;3131;45049;4;1680;1362;433;695;32;6;2390;34067;4;1201;1243;607;583;29;7;3332;31011;4;3503;487;31;8;3272;30552;4;3431;481;30;9;1639;16811;4;1738;498;28
09.02.20;15:40:00;1;293;12830;0;2;2230;18271;4;2352;386;34;3;1245;12007;4;1323;426;28;4;812;16253;5;846;239;23;5;3049;44796;4;1630;1324;429;691;33;6;2306;33875;4;1164;1182;599;579;29;7;3119;30731;4;3264;486;31;8;2588;30219;0;2714;394;25;9;1521;16673;4;1616;499;29
09.02.20;15:35:00;1;359;12805;0;2;2641;18087;4;2782;390;35;3;1482;11904;4;1566;425;28;4;920;16186;5;959;215;23;5;3706;44535;4;2011;1619;434;693;33;6;2796;33679;4;1396;1416;603;581;29;7;3673;30473;4;3854;492;31;8;2173;29901;0;2282;286;18;9;1892;16546;4;2005;513;30
09.02.20;15:30:00;1;472;12776;0;2;2691;17866;4;2836;398;35;3;1476;11781;4;1561;430;28;4;966;16109;5;1006;213;24;5;3796;44224;4;2053;1669;428;696;33;6;2885;33444;4;1473;1498;604;581;29;7;3727;30167;4;3911;484;32;8;3650;29730;4;3839;480;31;9;1973;16391;4;2092;533;30
09.02.20;15:25:00;1;555;12737;0;2;2741;17642;4;2886;394;36;3;1504;11657;4;1592;429;29;4;1012;16029;5;1054;225;24;5;3952;43906;4;2132;1733;429;697;33;6;2985;33203;4;1516;1529;600;582;29;7;3812;29857;4;3996;487;32;8;3731;29424;4;3922;485;32;9;2036;16225;4;2157;533;30
09.02.20;15:20:00;1;356;12702;0;2;2746;17414;4;2897;399;36;3;1507;11532;4;1594;427;29;4;1048;15945;5;1092;221;25;5;4067;43576;4;2193;1788;433;696;33;6;3072;32953;4;1547;1571;601;582;29;7;3820;29539;4;4012;480;32;8;3739;29112;4;3931;479;32;9;2036;16055;4;2159;530;31
09.02.20;15:15:00;1;340;12671;0;2;2920;17186;4;3081;402;37;3;1585;11407;4;1675;419;30;4;1156;15857;5;1204;229;25;5;4377;43238;4;2364;1935;429;697;33;6;3298;32697;4;1690;1693;604;584;29;7;3997;29222;4;4194;480;33;8;3900;28801;4;4092;472;32;9;2117;15887;4;2249;539;31
09.02.20;15:10:00;1;264;12644;0;2;2811;16942;4;2967;402;37;3;1501;11274;4;1588;425;30;4;1179;15761;5;1228;231;26;5;4147;42872;4;2247;1813;430;691;34;6;3091;32420;4;1567;1584;599;576;30;7;3751;28887;4;3935;480;33;8;3677;28475;4;3867;478;33;9;2027;15710;4;2154;529;32
09.02.20;15:05:00;1;249;12621;0;2;3129;16707;4;3304;405;38;3;1708;11149;4;1824;446;31;4;1376;15663;5;1434;241;26;5;4747;42523;4;2595;2095;425;692;34;6;3600;32158;4;1816;1820;597;574;30;7;4250;28574;4;4464;471;33;8;4182;28167;4;4392;477;33;9;2284;15539;4;2422;526;32
09.02.20;15:00:00;1;255;12600;0;2;3255;16445;4;3432;396;38;3;1928;11007;4;2039;476;32;4;1525;15548;5;1589;234;27;5;5016;42127;4;2733;2221;427;687;34;6;3799;31857;4;1925;1934;595;576;30;7;4436;28219;4;4666;483;34;8;3624;27821;4;3808;392;28;9;2385;15352;4;2527;522;32
09.02.20;14:55:00;1;272;12580;0;2;3283;16174;4;3462;399;39;3;2024;10846;4;2142;491;32;4;1642;15421;5;1711;239;27;5;5162;41707;4;2830;2276;427;696;34;6;3901;31539;4;1996;1997;595;574;30;7;4521;27853;4;4750;477;34;8;4438;27462;4;4664;470;34;9;2428;15153;4;2575;527;33
09.02.20;14:50:00;1;638;12543;0;2;3350;15901;4;3536;398;39;3;2125;10677;4;2260;506;32;4;1758;15284;5;1831;244;28;5;5363;41274;4;2946;2367;427;689;34;6;4056;31212;4;2077;2062;595;571;30;7;4612;27473;4;4846;473;34;8;4535;27092;4;4766;473;34;9;2482;14951;4;2632;523;33
09.02.20;14:45:00;1;531;12490;0;2;3409;15622;4;3597;398;39;3;2195;10500;4;2321;503;32;4;1885;15138;5;1964;241;28;5;5548;40826;4;3028;2440;423;676;34;6;4194;30873;4;2138;2123;590;570;30;7;4738;27090;4;4972;473;34;8;4659;26708;4;4887;467;34;9;2037;14741;4;2156;415;26
09.02.20;14:40:00;1;486;12439;0;2;3453;15337;4;3640;396;39;3;2221;10318;4;2348;503;32;4;2006;14981;5;2089;239;29;5;5711;40362;4;3132;2525;423;682;35;6;4310;30523;4;2204;2187;590;567;30;7;4808;26694;4;5045;468;34;8;4716;26319;4;4955;477;34;9;2594;14528;4;2749;518;34
09.02.20;14:35:00;1;547;12395;0;2;3490;15051;4;3679;396;39;3;2250;10133;4;2376;503;32;4;2145;14814;5;2234;239;29;5;5846;39886;4;3213;2586;419;676;35;6;4414;30163;4;2256;2234;586;568;30;7;4867;26295;4;5124;468;34;8;4785;25927;4;5029;464;34;9;2634;14312;4;2790;519;34
09.02.20;14:30:00;1;257;12362;0;2;3535;14759;4;3730;398;39;3;2282;9945;4;2414;506;32;4;2216;14635;5;2309;239;30;5;6014;39398;4;3297;2667;419;680;35;6;4550;29794;4;2343;2335;589;570;30;7;4966;25888;4;5214;473;34;8;4857;25527;4;5118;469;34;9;2682;14096;4;2843;519;34